Location: Trout Lake
(45.9980°N, 121.5270°W)
Time: 18:24:43
(UTC-08:00)

JB-3 - Pass Details

Date: 06 December 2023
Orbit: 513 x 567 km, 97.2° (Epoch: 22 February)

Event Time Altitude Azimuth Distance (km) Brightness Sun altitude
Exits shadow 18:40:44 76° 295° (WNW) 548 4.3 -23.4°
Maximum altitude 18:40:47 76° 285° (WNW) 548 4.3 -23.4°
Drops below altitude 10° 18:44:33 10° 199° (SSW) 1,751 7.2 -24.0°
Sets 18:46:38 0° 198° (SSW) 2,627 8.1 -24.4°
